Year,Month,Day,Hour,Minute,Value (Times are PST for barometer in hPa)
2008,01,04,00,00,992.72
2008,01,04,00,01,992.72
2008,01,04,00,02,992.75
2008,01,04,00,03,992.75
2008,01,04,00,04,992.75
2008,01,04,00,05,992.79
2008,01,04,00,06,992.75
2008,01,04,00,07,992.75
2008,01,04,00,08,992.79
2008,01,04,00,09,992.85
2008,01,04,00,10,992.80
2008,01,04,00,11,992.88
2008,01,04,00,12,992.82
2008,01,04,00,13,992.82
2008,01,04,00,14,992.79
2008,01,04,00,15,992.79
2008,01,04,00,16,992.79
2008,01,04,00,17,992.79
2008,01,04,00,18,992.75
2008,01,04,00,19,992.76
2008,01,04,00,20,992.82
2008,01,04,00,21,992.81
2008,01,04,00,22,992.75
2008,01,04,00,23,992.74
2008,01,04,00,24,992.69
2008,01,04,00,25,992.69
2008,01,04,00,26,992.65
2008,01,04,00,27,992.57
2008,01,04,00,28,992.47
2008,01,04,00,29,992.42
2008,01,04,00,30,992.35
2008,01,04,00,31,992.28
2008,01,04,00,32,992.28
2008,01,04,00,33,992.25
2008,01,04,00,34,992.28
2008,01,04,00,35,992.28
2008,01,04,00,36,992.28
2008,01,04,00,37,992.28
2008,01,04,00,38,992.25
2008,01,04,00,39,992.25
2008,01,04,00,40,992.25
2008,01,04,00,41,992.25
2008,01,04,00,42,992.21
2008,01,04,00,43,992.18
2008,01,04,00,44,992.21
2008,01,04,00,45,992.18
2008,01,04,00,46,992.11
2008,01,04,00,47,992.04
2008,01,04,00,48,992.01
2008,01,04,00,49,991.98
2008,01,04,00,50,991.98
2008,01,04,00,51,992.01
2008,01,04,00,52,992.01
2008,01,04,00,53,991.99
2008,01,04,00,54,992.04
2008,01,04,00,55,992.03
2008,01,04,00,56,991.98
2008,01,04,00,57,991.98
2008,01,04,00,58,991.94
2008,01,04,00,59,991.90
2008,01,04,01,00,991.83
2008,01,04,01,01,991.69
2008,01,04,01,02,991.64
2008,01,04,01,03,991.60
2008,01,04,01,04,991.60
2008,01,04,01,05,991.57
2008,01,04,01,06,991.53
2008,01,04,01,07,991.57
2008,01,04,01,08,991.53
2008,01,04,01,09,991.53
2008,01,04,01,10,991.50
2008,01,04,01,11,991.50
2008,01,04,01,12,991.46
2008,01,04,01,13,991.37
2008,01,04,01,14,991.33
2008,01,04,01,15,991.26
2008,01,04,01,16,991.26
2008,01,04,01,17,991.23
2008,01,04,01,18,991.23
2008,01,04,01,19,991.20
2008,01,04,01,20,991.16
2008,01,04,01,21,991.13
2008,01,04,01,22,991.09
2008,01,04,01,23,991.09
2008,01,04,01,24,991.13
2008,01,04,01,25,991.13
2008,01,04,01,26,991.09
2008,01,04,01,27,991.13
2008,01,04,01,28,991.09
2008,01,04,01,29,991.03
2008,01,04,01,30,990.99
2008,01,04,01,31,990.99
2008,01,04,01,32,991.06
2008,01,04,01,33,991.03
2008,01,04,01,34,990.99
2008,01,04,01,35,990.98
2008,01,04,01,36,990.93
2008,01,04,01,37,990.93
2008,01,04,01,38,990.89
2008,01,04,01,39,990.88
2008,01,04,01,40,990.82
2008,01,04,01,41,990.82
2008,01,04,01,42,990.79
2008,01,04,01,43,990.79
2008,01,04,01,44,990.86
2008,01,04,01,45,990.86
2008,01,04,01,46,990.82
2008,01,04,01,47,990.82
2008,01,04,01,48,990.82
2008,01,04,01,49,990.85
2008,01,04,01,50,990.79
2008,01,04,01,51,990.79
2008,01,04,01,52,990.82
2008,01,04,01,53,990.79
2008,01,04,01,54,990.79
2008,01,04,01,55,990.79
2008,01,04,01,56,990.79
2008,01,04,01,57,990.82
2008,01,04,01,58,990.89
2008,01,04,01,59,990.89
2008,01,04,02,00,990.86
2008,01,04,02,01,990.89
2008,01,04,02,02,990.82
2008,01,04,02,03,990.79
2008,01,04,02,04,990.82
2008,01,04,02,05,990.85
2008,01,04,02,06,990.71
2008,01,04,02,07,990.65
2008,01,04,02,08,990.62
2008,01,04,02,09,990.65
2008,01,04,02,10,990.65
2008,01,04,02,11,990.66
2008,01,04,02,12,990.79
2008,01,04,02,13,990.86
2008,01,04,02,14,990.86
2008,01,04,02,15,990.79
2008,01,04,02,16,990.78
2008,01,04,02,17,990.73
2008,01,04,02,18,990.78
2008,01,04,02,19,990.69
2008,01,04,02,20,990.72
2008,01,04,02,21,990.72
2008,01,04,02,22,990.69
2008,01,04,02,23,990.66
2008,01,04,02,24,990.79
2008,01,04,02,25,990.78
2008,01,04,02,26,990.55
2008,01,04,02,27,990.51
2008,01,04,02,28,990.45
2008,01,04,02,29,990.45
2008,01,04,02,30,990.41
2008,01,04,02,31,990.35
2008,01,04,02,32,990.28
2008,01,04,02,33,990.25
2008,01,04,02,34,990.18
2008,01,04,02,35,990.20
2008,01,04,02,36,990.07
2008,01,04,02,37,989.98
2008,01,04,02,38,989.91
2008,01,04,02,39,989.81
2008,01,04,02,40,989.84
2008,01,04,02,41,989.76
2008,01,04,02,42,989.66
2008,01,04,02,43,989.56
2008,01,04,02,44,989.50
2008,01,04,02,45,989.46
2008,01,04,02,46,989.37
2008,01,04,02,47,989.40
2008,01,04,02,48,989.37
2008,01,04,02,49,989.37
2008,01,04,02,50,989.33
2008,01,04,02,51,989.36
2008,01,04,02,52,989.27
2008,01,04,02,53,989.20
2008,01,04,02,54,989.20
2008,01,04,02,55,989.16
2008,01,04,02,56,989.15
2008,01,04,02,57,989.03
2008,01,04,02,58,988.96
2008,01,04,02,59,988.92
2008,01,04,03,00,988.83
2008,01,04,03,01,988.75
2008,01,04,03,02,988.62
2008,01,04,03,03,988.62
2008,01,04,03,04,988.55
2008,01,04,03,05,988.49
2008,01,04,03,06,988.49
2008,01,04,03,07,988.44
2008,01,04,03,08,988.35
2008,01,04,03,09,988.39
2008,01,04,03,10,988.34
2008,01,04,03,11,988.25
2008,01,04,03,12,988.22
2008,01,04,03,13,988.15
2008,01,04,03,14,988.15
2008,01,04,03,15,988.18
2008,01,04,03,16,988.15
2008,01,04,03,17,988.11
2008,01,04,03,18,988.15
2008,01,04,03,19,988.11
2008,01,04,03,20,988.18
2008,01,04,03,21,988.10
2008,01,04,03,22,987.98
2008,01,04,03,23,987.98
2008,01,04,03,24,987.98
2008,01,04,03,25,987.95
2008,01,04,03,26,987.95
2008,01,04,03,27,987.91
2008,01,04,03,28,987.95
2008,01,04,03,29,987.91
2008,01,04,03,30,987.81
2008,01,04,03,31,987.78
2008,01,04,03,32,987.78
2008,01,04,03,33,987.74
2008,01,04,03,34,987.71
2008,01,04,03,35,987.74
2008,01,04,03,36,987.71
2008,01,04,03,37,987.71
2008,01,04,03,38,987.71
2008,01,04,03,39,987.70
2008,01,04,03,40,987.64
2008,01,04,03,41,987.61
2008,01,04,03,42,987.57
2008,01,04,03,43,987.57
2008,01,04,03,44,987.57
2008,01,04,03,45,987.54
2008,01,04,03,46,987.50
2008,01,04,03,47,987.40
2008,01,04,03,48,987.40
2008,01,04,03,49,987.33
2008,01,04,03,50,987.27
2008,01,04,03,51,987.26
2008,01,04,03,52,987.20
2008,01,04,03,53,987.13
2008,01,04,03,54,987.09
2008,01,04,03,55,987.00
2008,01,04,03,56,986.96
2008,01,04,03,57,986.96
2008,01,04,03,58,986.93
2008,01,04,03,59,986.90
2008,01,04,04,00,986.86
2008,01,04,04,01,986.83
2008,01,04,04,02,986.75
2008,01,04,04,03,986.69
2008,01,04,04,04,986.61
2008,01,04,04,05,986.48
2008,01,04,04,06,986.46
2008,01,04,04,07,986.46
2008,01,04,04,08,986.42
2008,01,04,04,09,986.46
2008,01,04,04,10,986.42
2008,01,04,04,11,986.41
2008,01,04,04,12,986.35
2008,01,04,04,13,986.32
2008,01,04,04,14,986.29
2008,01,04,04,15,986.22
2008,01,04,04,16,986.15
2008,01,04,04,17,986.07
2008,01,04,04,18,985.98
2008,01,04,04,19,985.98
2008,01,04,04,20,985.91
2008,01,04,04,21,985.88
2008,01,04,04,22,985.85
2008,01,04,04,23,985.81
2008,01,04,04,24,985.78
2008,01,04,04,25,985.74
2008,01,04,04,26,985.71
2008,01,04,04,27,985.68
2008,01,04,04,28,985.64
2008,01,04,04,29,985.57
2008,01,04,04,30,985.51
2008,01,04,04,31,985.47
2008,01,04,04,32,985.44
2008,01,04,04,33,985.41
2008,01,04,04,34,985.44
2008,01,04,04,35,985.41
2008,01,04,04,36,985.34
2008,01,04,04,37,985.27
2008,01,04,04,38,985.20
2008,01,04,04,39,985.19
2008,01,04,04,40,985.12
2008,01,04,04,41,985.03
2008,01,04,04,42,985.07
2008,01,04,04,43,985.00
2008,01,04,04,44,984.93
2008,01,04,04,45,984.90
2008,01,04,04,46,984.86
2008,01,04,04,47,984.80
2008,01,04,04,48,984.76
2008,01,04,04,49,984.69
2008,01,04,04,50,984.66
2008,01,04,04,51,984.59
2008,01,04,04,52,984.53
2008,01,04,04,53,984.46
2008,01,04,04,54,984.42
2008,01,04,04,55,984.36
2008,01,04,04,56,984.32
2008,01,04,04,57,984.25
2008,01,04,04,58,984.19
2008,01,04,04,59,984.19
2008,01,04,05,00,984.15
2008,01,04,05,01,984.22
2008,01,04,05,02,984.15
2008,01,04,05,03,984.05
2008,01,04,05,04,983.98
2008,01,04,05,05,983.92
2008,01,04,05,06,983.85
2008,01,04,05,07,983.81
2008,01,04,05,08,983.75
2008,01,04,05,09,983.71
2008,01,04,05,10,983.68
2008,01,04,05,11,983.68
2008,01,04,05,12,983.61
2008,01,04,05,13,983.54
2008,01,04,05,14,983.51
2008,01,04,05,15,983.48
2008,01,04,05,16,983.47
2008,01,04,05,17,983.37
2008,01,04,05,18,983.30
2008,01,04,05,19,983.19
2008,01,04,05,20,983.10
2008,01,04,05,21,983.10
2008,01,04,05,22,983.07
2008,01,04,05,23,982.97
2008,01,04,05,24,982.97
2008,01,04,05,25,982.90
2008,01,04,05,26,982.80
2008,01,04,05,27,982.73
2008,01,04,05,28,982.73
2008,01,04,05,29,982.66
2008,01,04,05,30,982.66
2008,01,04,05,31,982.63
2008,01,04,05,32,982.56
2008,01,04,05,33,982.53
2008,01,04,05,34,982.46
2008,01,04,05,35,982.39
2008,01,04,05,36,982.32
2008,01,04,05,37,982.29
2008,01,04,05,38,982.29
2008,01,04,05,39,982.21
2008,01,04,05,40,982.09
2008,01,04,05,41,981.99
2008,01,04,05,42,981.98
2008,01,04,05,43,981.85
2008,01,04,05,44,981.78
2008,01,04,05,45,981.75
2008,01,04,05,46,981.74
2008,01,04,05,47,981.65
2008,01,04,05,48,981.65
2008,01,04,05,49,981.61
2008,01,04,05,50,981.55
2008,01,04,05,51,981.48
2008,01,04,05,52,981.47
2008,01,04,05,53,981.38
2008,01,04,05,54,981.41
2008,01,04,05,55,981.38
2008,01,04,05,56,981.34
2008,01,04,05,57,981.24
2008,01,04,05,58,981.17
2008,01,04,05,59,981.14
2008,01,04,06,00,981.07
2008,01,04,06,01,981.00
2008,01,04,06,02,980.97
2008,01,04,06,03,980.90
2008,01,04,06,04,980.89
2008,01,04,06,05,980.73
2008,01,04,06,06,980.73
2008,01,04,06,07,980.66
2008,01,04,06,08,980.66
2008,01,04,06,09,980.66
2008,01,04,06,10,980.63
2008,01,04,06,11,980.60
2008,01,04,06,12,980.53
2008,01,04,06,13,980.50
2008,01,04,06,14,980.43
2008,01,04,06,15,980.39
2008,01,04,06,16,980.36
2008,01,04,06,17,980.33
2008,01,04,06,18,980.22
2008,01,04,06,19,980.21
2008,01,04,06,20,980.12
2008,01,04,06,21,980.09
2008,01,04,06,22,980.06
2008,01,04,06,23,980.09
2008,01,04,06,24,980.06
2008,01,04,06,25,980.02
2008,01,04,06,26,979.92
2008,01,04,06,27,979.92
2008,01,04,06,28,979.91
2008,01,04,06,29,979.82
2008,01,04,06,30,979.78
2008,01,04,06,31,979.65
2008,01,04,06,32,979.60
2008,01,04,06,33,979.51
2008,01,04,06,34,979.47
2008,01,04,06,35,979.38
2008,01,04,06,36,979.34
2008,01,04,06,37,979.28
2008,01,04,06,38,979.27
2008,01,04,06,39,979.13
2008,01,04,06,40,978.97
2008,01,04,06,41,978.94
2008,01,04,06,42,978.87
2008,01,04,06,43,978.79
2008,01,04,06,44,978.70
2008,01,04,06,45,978.70
2008,01,04,06,46,978.67
2008,01,04,06,47,978.70
2008,01,04,06,48,978.67
2008,01,04,06,49,978.63
2008,01,04,06,50,978.56
2008,01,04,06,51,978.46
2008,01,04,06,52,978.36
2008,01,04,06,53,978.39
2008,01,04,06,54,978.26
2008,01,04,06,55,978.23
2008,01,04,06,56,978.12
2008,01,04,06,57,978.12
2008,01,04,06,58,978.12
2008,01,04,06,59,978.09
2008,01,04,07,00,978.06
2008,01,04,07,01,978.11
2008,01,04,07,02,978.02
2008,01,04,07,03,978.02
2008,01,04,07,04,977.96
2008,01,04,07,05,977.92
2008,01,04,07,06,977.85
2008,01,04,07,07,977.82
2008,01,04,07,08,977.84
2008,01,04,07,09,977.72
2008,01,04,07,10,977.68
2008,01,04,07,11,977.74
2008,01,04,07,12,977.65
2008,01,04,07,13,977.65
2008,01,04,07,14,977.57
2008,01,04,07,15,977.45
2008,01,04,07,16,977.45
2008,01,04,07,17,977.35
2008,01,04,07,18,977.31
2008,01,04,07,19,977.24
2008,01,04,07,20,977.18
2008,01,04,07,21,977.14
2008,01,04,07,22,977.10
2008,01,04,07,23,976.97
2008,01,04,07,24,977.01
2008,01,04,07,25,976.97
2008,01,04,07,26,976.94
2008,01,04,07,27,976.87
2008,01,04,07,28,976.87
2008,01,04,07,29,976.86
2008,01,04,07,30,976.77
2008,01,04,07,31,976.67
2008,01,04,07,32,976.67
2008,01,04,07,33,976.63
2008,01,04,07,34,976.60
2008,01,04,07,35,976.57
2008,01,04,07,36,976.53
2008,01,04,07,37,976.46
2008,01,04,07,38,976.33
2008,01,04,07,39,976.30
2008,01,04,07,40,976.23
2008,01,04,07,41,976.16
2008,01,04,07,42,976.09
2008,01,04,07,43,976.06
2008,01,04,07,44,976.03
2008,01,04,07,45,976.03
2008,01,04,07,46,975.99
2008,01,04,07,47,976.03
2008,01,04,07,48,975.96
2008,01,04,07,49,975.96
2008,01,04,07,50,975.89
2008,01,04,07,51,975.90
2008,01,04,07,52,975.98
2008,01,04,07,53,975.89
2008,01,04,07,54,975.86
2008,01,04,07,55,975.89
2008,01,04,07,56,975.89
2008,01,04,07,57,975.89
2008,01,04,07,58,975.82
2008,01,04,07,59,975.86
2008,01,04,08,00,975.75
2008,01,04,08,01,975.79
2008,01,04,08,02,975.79
2008,01,04,08,03,975.82
2008,01,04,08,04,975.79
2008,01,04,08,05,975.72
2008,01,04,08,06,975.75
2008,01,04,08,07,975.75
2008,01,04,08,08,975.79
2008,01,04,08,09,975.79
2008,01,04,08,10,975.75
2008,01,04,08,11,975.79
2008,01,04,08,12,975.79
2008,01,04,08,13,975.82
2008,01,04,08,14,975.79
2008,01,04,08,15,975.72
2008,01,04,08,16,975.69
2008,01,04,08,17,975.62
2008,01,04,08,18,975.59
2008,01,04,08,19,975.59
2008,01,04,08,20,975.55
2008,01,04,08,21,975.52
2008,01,04,08,22,975.51
2008,01,04,08,23,975.35
2008,01,04,08,24,975.37
2008,01,04,08,25,975.28
2008,01,04,08,26,975.28
2008,01,04,08,27,975.25
2008,01,04,08,28,975.28
2008,01,04,08,29,975.21
2008,01,04,08,30,975.21
2008,01,04,08,31,975.14
2008,01,04,08,32,975.08
2008,01,04,08,33,975.01
2008,01,04,08,34,974.98
2008,01,04,08,35,975.01
2008,01,04,08,36,975.01
2008,01,04,08,37,975.01
2008,01,04,08,38,974.98
2008,01,04,08,39,974.98
2008,01,04,08,40,974.94
2008,01,04,08,41,974.87
2008,01,04,08,42,974.87
2008,01,04,08,43,974.87
2008,01,04,08,44,974.84
2008,01,04,08,45,974.84
2008,01,04,08,46,974.86
2008,01,04,08,47,974.77
2008,01,04,08,48,974.70
2008,01,04,08,49,974.77
2008,01,04,08,50,974.83
2008,01,04,08,51,974.74
2008,01,04,08,52,974.70
2008,01,04,08,53,974.76
2008,01,04,08,54,974.60
2008,01,04,08,55,974.57
2008,01,04,08,56,974.60
2008,01,04,08,57,974.57
2008,01,04,08,58,974.54
2008,01,04,08,59,974.57
2008,01,04,09,00,974.54
2008,01,04,09,01,974.50
2008,01,04,09,02,974.50
2008,01,04,09,03,974.47
2008,01,04,09,04,974.47
2008,01,04,09,05,974.43
2008,01,04,09,06,974.39
2008,01,04,09,07,974.30
2008,01,04,09,08,974.30
2008,01,04,09,09,974.37
2008,01,04,09,10,974.33
2008,01,04,09,11,974.37
2008,01,04,09,12,974.37
2008,01,04,09,13,974.43
2008,01,04,09,14,974.40
2008,01,04,09,15,974.40
2008,01,04,09,16,974.37
2008,01,04,09,17,974.37
2008,01,04,09,18,974.40
2008,01,04,09,19,974.37
2008,01,04,09,20,974.37
2008,01,04,09,21,974.33
2008,01,04,09,22,974.24
2008,01,04,09,23,974.37
2008,01,04,09,24,974.39
2008,01,04,09,25,974.30
2008,01,04,09,26,974.34
2008,01,04,09,27,974.42
2008,01,04,09,28,974.33
2008,01,04,09,29,974.26
2008,01,04,09,30,974.23
2008,01,04,09,31,974.26
2008,01,04,09,32,974.23
2008,01,04,09,33,974.23
2008,01,04,09,34,974.26
2008,01,04,09,35,974.26
2008,01,04,09,36,974.26
2008,01,04,09,37,974.23
2008,01,04,09,38,974.22
2008,01,04,09,39,974.13
2008,01,04,09,40,974.13
2008,01,04,09,41,974.06
2008,01,04,09,42,974.10
2008,01,04,09,43,974.10
2008,01,04,09,44,974.03
2008,01,04,09,45,973.96
2008,01,04,09,46,973.93
2008,01,04,09,47,973.96
2008,01,04,09,48,974.02
2008,01,04,09,49,973.89
2008,01,04,09,50,973.82
2008,01,04,09,51,973.79
2008,01,04,09,52,973.76
2008,01,04,09,53,973.71
2008,01,04,09,54,973.55
2008,01,04,09,55,973.52
2008,01,04,09,56,973.49
2008,01,04,09,57,973.55
2008,01,04,09,58,973.55
2008,01,04,09,59,973.52
2008,01,04,10,00,973.49
2008,01,04,10,01,973.42
2008,01,04,10,02,973.49
2008,01,04,10,03,973.42
2008,01,04,10,04,973.45
2008,01,04,10,05,973.35
2008,01,04,10,06,973.32
2008,01,04,10,07,973.28
2008,01,04,10,08,973.22
2008,01,04,10,09,973.32
2008,01,04,10,10,973.35
2008,01,04,10,11,973.32
2008,01,04,10,12,973.28
2008,01,04,10,13,973.38
2008,01,04,10,14,973.45
2008,01,04,10,15,973.38
2008,01,04,10,16,973.38
2008,01,04,10,17,973.35
2008,01,04,10,18,973.27
2008,01,04,10,19,973.18
2008,01,04,10,20,973.18
2008,01,04,10,21,973.25
2008,01,04,10,22,973.32
2008,01,04,10,23,973.35
2008,01,04,10,24,973.28
2008,01,04,10,25,973.28
2008,01,04,10,26,973.35
2008,01,04,10,27,973.28
2008,01,04,10,28,973.38
2008,01,04,10,29,973.42
2008,01,04,10,30,973.35
2008,01,04,10,31,973.28
2008,01,04,10,32,973.35
2008,01,04,10,33,973.28
2008,01,04,10,34,973.28
2008,01,04,10,35,973.21
2008,01,04,10,36,973.28
2008,01,04,10,37,973.28
2008,01,04,10,38,973.21
2008,01,04,10,39,973.27
2008,01,04,10,40,973.11
2008,01,04,10,41,973.08
2008,01,04,10,42,973.08
2008,01,04,10,43,973.01
2008,01,04,10,44,972.91
2008,01,04,10,45,972.88
2008,01,04,10,46,972.88
2008,01,04,10,47,972.94
2008,01,04,10,48,972.88
2008,01,04,10,49,972.84
2008,01,04,10,50,972.84
2008,01,04,10,51,972.90
2008,01,04,10,52,972.77
2008,01,04,10,53,972.77
2008,01,04,10,54,972.84
2008,01,04,10,55,972.94
2008,01,04,10,56,972.98
2008,01,04,10,57,973.01
2008,01,04,10,58,972.94
2008,01,04,10,59,972.88
2008,01,04,11,00,972.91
2008,01,04,11,01,972.93
2008,01,04,11,02,972.80
2008,01,04,11,03,972.71
2008,01,04,11,04,972.67
2008,01,04,11,05,972.74
2008,01,04,11,06,972.74
2008,01,04,11,07,972.74
2008,01,04,11,08,972.67
2008,01,04,11,09,972.64
2008,01,04,11,10,972.61
2008,01,04,11,11,972.64
2008,01,04,11,12,972.61
2008,01,04,11,13,972.61
2008,01,04,11,14,972.61
2008,01,04,11,15,972.57
2008,01,04,11,16,972.50
2008,01,04,11,17,972.44
2008,01,04,11,18,972.44
2008,01,04,11,19,972.47
2008,01,04,11,20,972.47
2008,01,04,11,21,972.44
2008,01,04,11,22,972.43
2008,01,04,11,23,972.30
2008,01,04,11,24,972.23
2008,01,04,11,25,972.23
2008,01,04,11,26,972.27
2008,01,04,11,27,972.13
2008,01,04,11,28,972.20
2008,01,04,11,29,972.23
2008,01,04,11,30,972.20
2008,01,04,11,31,972.20
2008,01,04,11,32,972.16
2008,01,04,11,33,972.06
2008,01,04,11,34,972.13
2008,01,04,11,35,972.10
2008,01,04,11,36,972.10
2008,01,04,11,37,972.06
2008,01,04,11,38,972.13
2008,01,04,11,39,972.16
2008,01,04,11,40,972.16
2008,01,04,11,41,972.20
2008,01,04,11,42,972.16
2008,01,04,11,43,972.16
2008,01,04,11,44,972.10
2008,01,04,11,45,972.10
2008,01,04,11,46,972.13
2008,01,04,11,47,972.06
2008,01,04,11,48,972.06
2008,01,04,11,49,972.06
2008,01,04,11,50,972.03
2008,01,04,11,51,972.03
2008,01,04,11,52,972.00
2008,01,04,11,53,972.06
2008,01,04,11,54,972.06
2008,01,04,11,55,972.10
2008,01,04,11,56,972.10
2008,01,04,11,57,972.13
2008,01,04,11,58,972.06
2008,01,04,11,59,972.13
2008,01,04,12,00,972.10
2008,01,04,12,01,972.03
2008,01,04,12,02,971.96
2008,01,04,12,03,971.96
2008,01,04,12,04,972.00
2008,01,04,12,05,971.93
2008,01,04,12,06,971.93
2008,01,04,12,07,971.96
2008,01,04,12,08,971.93
2008,01,04,12,09,971.93
2008,01,04,12,10,971.96
2008,01,04,12,11,971.96
2008,01,04,12,12,971.93
2008,01,04,12,13,971.93
2008,01,04,12,14,971.89
2008,01,04,12,15,971.89
2008,01,04,12,16,971.89
2008,01,04,12,17,971.89
2008,01,04,12,18,971.79
2008,01,04,12,19,971.79
2008,01,04,12,20,971.83
2008,01,04,12,21,971.79
2008,01,04,12,22,971.79
2008,01,04,12,23,971.83
2008,01,04,12,24,971.79
2008,01,04,12,25,971.76
2008,01,04,12,26,971.76
2008,01,04,12,27,971.66
2008,01,04,12,28,971.69
2008,01,04,12,29,971.66
2008,01,04,12,30,971.66
2008,01,04,12,31,971.69
2008,01,04,12,32,971.66
2008,01,04,12,33,971.66
2008,01,04,12,34,971.68
2008,01,04,12,35,971.59
2008,01,04,12,36,971.59
2008,01,04,12,37,971.66
2008,01,04,12,38,971.66
2008,01,04,12,39,971.66
2008,01,04,12,40,971.69
2008,01,04,12,41,971.72
2008,01,04,12,42,971.72
2008,01,04,12,43,971.76
2008,01,04,12,44,971.76
2008,01,04,12,45,971.79
2008,01,04,12,46,971.83
2008,01,04,12,47,971.86
2008,01,04,12,48,971.86
2008,01,04,12,49,971.89
2008,01,04,12,50,971.93
2008,01,04,12,51,972.00
2008,01,04,12,52,971.96
2008,01,04,12,53,971.96
2008,01,04,12,54,972.03
2008,01,04,12,55,972.03
2008,01,04,12,56,972.06
2008,01,04,12,57,972.00
2008,01,04,12,58,971.96
2008,01,04,12,59,972.00
2008,01,04,13,00,971.96
2008,01,04,13,01,971.96
2008,01,04,13,02,971.96
2008,01,04,13,03,971.96
2008,01,04,13,04,972.00
2008,01,04,13,05,971.96
2008,01,04,13,06,972.00
2008,01,04,13,07,971.93
2008,01,04,13,08,972.00
2008,01,04,13,09,972.03
2008,01,04,13,10,972.03
2008,01,04,13,11,972.10
2008,01,04,13,12,972.10
2008,01,04,13,13,972.07
2008,01,04,13,14,972.16
2008,01,04,13,15,972.23
2008,01,04,13,16,972.30
2008,01,04,13,17,972.38
2008,01,04,13,18,972.47
2008,01,04,13,19,972.54
2008,01,04,13,20,972.47
2008,01,04,13,21,972.40
2008,01,04,13,22,972.44
2008,01,04,13,23,972.40
2008,01,04,13,24,972.40
2008,01,04,13,25,972.33
2008,01,04,13,26,972.37
2008,01,04,13,27,972.33
2008,01,04,13,28,972.16
2008,01,04,13,29,972.13
2008,01,04,13,30,972.20
2008,01,04,13,31,972.13
2008,01,04,13,32,972.13
2008,01,04,13,33,972.03
2008,01,04,13,34,972.06
2008,01,04,13,35,972.27
2008,01,04,13,36,972.27
2008,01,04,13,37,972.23
2008,01,04,13,38,972.13
2008,01,04,13,39,972.10
2008,01,04,13,40,972.03
2008,01,04,13,41,971.96
2008,01,04,13,42,971.96
2008,01,04,13,43,971.93
2008,01,04,13,44,971.86
2008,01,04,13,45,971.86
2008,01,04,13,46,971.86
2008,01,04,13,47,971.76
2008,01,04,13,48,971.79
2008,01,04,13,49,971.86
2008,01,04,13,50,971.83
2008,01,04,13,51,971.76
2008,01,04,13,52,971.76
2008,01,04,13,53,971.76
2008,01,04,13,54,971.76
2008,01,04,13,55,971.79
2008,01,04,13,56,971.69
2008,01,04,13,57,971.69
2008,01,04,13,58,971.59
2008,01,04,13,59,971.66
2008,01,04,14,00,971.56
2008,01,04,14,01,971.49
2008,01,04,14,02,971.35
2008,01,04,14,03,971.35
2008,01,04,14,04,971.35
2008,01,04,14,05,971.32
2008,01,04,14,06,971.25
2008,01,04,14,07,971.28
2008,01,04,14,08,971.28
2008,01,04,14,09,971.32
2008,01,04,14,10,971.35
2008,01,04,14,11,971.32
2008,01,04,14,12,971.25
2008,01,04,14,13,971.18
2008,01,04,14,14,971.15
2008,01,04,14,15,971.18
2008,01,04,14,16,971.18
2008,01,04,14,17,971.22
2008,01,04,14,18,971.28
2008,01,04,14,19,971.39
2008,01,04,14,20,971.49
2008,01,04,14,21,971.52
2008,01,04,14,22,971.59
2008,01,04,14,23,971.59
2008,01,04,14,24,971.52
2008,01,04,14,25,971.49
2008,01,04,14,26,971.49
2008,01,04,14,27,971.42
2008,01,04,14,28,971.39
2008,01,04,14,29,971.45
2008,01,04,14,30,971.39
2008,01,04,14,31,971.35
2008,01,04,14,32,971.35
2008,01,04,14,33,971.45
2008,01,04,14,34,971.39
2008,01,04,14,35,971.35
2008,01,04,14,36,971.28
2008,01,04,14,37,971.28
2008,01,04,14,38,971.28
2008,01,04,14,39,971.28
2008,01,04,14,40,971.32
2008,01,04,14,41,971.32
2008,01,04,14,42,971.32
2008,01,04,14,43,971.39
2008,01,04,14,44,971.42
2008,01,04,14,45,971.42
2008,01,04,14,46,971.39
2008,01,04,14,47,971.32
2008,01,04,14,48,971.35
2008,01,04,14,49,971.35
2008,01,04,14,50,971.32
2008,01,04,14,51,971.28
2008,01,04,14,52,971.22
2008,01,04,14,53,971.18
2008,01,04,14,54,971.15
2008,01,04,14,55,971.08
2008,01,04,14,56,971.01
2008,01,04,14,57,971.01
2008,01,04,14,58,970.98
2008,01,04,14,59,971.01
2008,01,04,15,00,971.05
2008,01,04,15,01,970.98
2008,01,04,15,02,970.98
2008,01,04,15,03,970.98
2008,01,04,15,04,970.95
2008,01,04,15,05,970.95
2008,01,04,15,06,970.91
2008,01,04,15,07,970.88
2008,01,04,15,08,970.88
2008,01,04,15,09,970.81
2008,01,04,15,10,970.78
2008,01,04,15,11,970.78
2008,01,04,15,12,970.74
2008,01,04,15,13,970.64
2008,01,04,15,14,970.57
2008,01,04,15,15,970.54
2008,01,04,15,16,970.51
2008,01,04,15,17,970.47
2008,01,04,15,18,970.51
2008,01,04,15,19,970.54
2008,01,04,15,20,970.54
2008,01,04,15,21,970.54
2008,01,04,15,22,970.47
2008,01,04,15,23,970.47
2008,01,04,15,24,970.47
2008,01,04,15,25,970.54
2008,01,04,15,26,970.57
2008,01,04,15,27,970.54
2008,01,04,15,28,970.51
2008,01,04,15,29,970.51
2008,01,04,15,30,970.54
2008,01,04,15,31,970.51
2008,01,04,15,32,970.57
2008,01,04,15,33,970.57
2008,01,04,15,34,970.54
2008,01,04,15,35,970.57
2008,01,04,15,36,970.57
2008,01,04,15,37,970.64
2008,01,04,15,38,970.64
2008,01,04,15,39,970.61
2008,01,04,15,40,970.64
2008,01,04,15,41,970.57
2008,01,04,15,42,970.54
2008,01,04,15,43,970.51
2008,01,04,15,44,970.51
2008,01,04,15,45,970.51
2008,01,04,15,46,970.54
2008,01,04,15,47,970.61
2008,01,04,15,48,970.61
2008,01,04,15,49,970.61
2008,01,04,15,50,970.57
2008,01,04,15,51,970.54
2008,01,04,15,52,970.51
2008,01,04,15,53,970.54
2008,01,04,15,54,970.51
2008,01,04,15,55,970.54
2008,01,04,15,56,970.51
2008,01,04,15,57,970.51
2008,01,04,15,58,970.47
2008,01,04,15,59,970.47
2008,01,04,16,00,970.47
2008,01,04,16,01,970.47
2008,01,04,16,02,970.51
2008,01,04,16,03,970.51
2008,01,04,16,04,970.51
2008,01,04,16,05,970.47
2008,01,04,16,06,970.47
2008,01,04,16,07,970.44
2008,01,04,16,08,970.44
2008,01,04,16,09,970.44
2008,01,04,16,10,970.44
2008,01,04,16,11,970.37
2008,01,04,16,12,970.34
2008,01,04,16,13,970.23
2008,01,04,16,14,970.16
2008,01,04,16,15,970.07
2008,01,04,16,16,970.10
2008,01,04,16,17,970.13
2008,01,04,16,18,970.20
2008,01,04,16,19,970.17
2008,01,04,16,20,970.17
2008,01,04,16,21,970.10
2008,01,04,16,22,969.96
2008,01,04,16,23,969.86
2008,01,04,16,24,969.79
2008,01,04,16,25,969.79
2008,01,04,16,26,969.76
2008,01,04,16,27,969.79
2008,01,04,16,28,969.76
2008,01,04,16,29,969.76
2008,01,04,16,30,969.76
2008,01,04,16,31,969.73
2008,01,04,16,32,969.63
2008,01,04,16,33,969.63
2008,01,04,16,34,969.63
2008,01,04,16,35,969.66
2008,01,04,16,36,969.76